Weather in Blizhnyaya Igumenka

Russia / Belgorod Oblast     50°36′53″N   36°42′56″E
temp.,
°C
wind,
m/s
gust,
m/s
humid.,
%
clouds,
%
prec.,
mm/h
press.,
hPa
HPBL,
m
27 january, wed
wed2700:00+2s41394100 2.9 1010526
03:00+2wsw1298100 4.5 101046
06:00+1n1299100 0.4 101061
09:00+1e2499100 1.9 1008131
12:00+1ese3699100 1.9 1008213
15:00+2se3899100 3.3 1006283
18:00+2ese3697100 1.3 1006132
21:00+2se51193100 1.3 1004282
28 january, thu
thu2800:00+2se61393100 0.5 1004409
03:00+1se61292100 0.9 1004351
06:00+1se51195100 0.8 1003353
09:00+1ese51095100 1.0 1003312
12:00+3se51092100 0.0 1003472
15:00+4se41089100 0.0 1002509
18:00+3se499196 0.0 1003179
21:00+3sse4109498 0.0 1004255
29 january, fri
fri2900:00+2s4984100 0.0 1004332
03:000sse4108483 0.0 1003303
06:00−1sse513830 0.0 1001663
09:00+1sse7128239 0.1 10001042
12:00+1s81277100 0.4 9981152
15:000sw81292100 1.1 998910
18:00−1sw7128499 0.6 998756
21:00−2sw8139599 1.9 999903
30 january, sat
sat3000:00−1sw81489100 1.0 998821
03:00−3wsw4118789 1.7 999613
06:00−4wsw511840 0.0 1000569
09:00−4sw4108433 0.0 1002562
12:00−1ssw5875100 0.0 1002577
15:00−1s3694100 0.4 1001405
18:000se5998100 1.4 999366
21:00+2sse51399100 4.6 996504
31 january, sun
sun3100:00+3s91897100 4.9 994756
03:00+3sw61398100 7.6 994468
06:00+2sw61295100 0.4 995544
09:00−1w6986100 0.5 998720
12:00−2w589295 0.2 1002617
15:00−1w577996 0.2 1005787
18:00−2w368692 0.0 1007433
21:00−3sw238871 0.0 1009120